Vertical_Velocity
-3 -2 2 -4 -2 -2 5 -7 -0 -7 -1 -4 -4 -3 -6 -8 1 -1 -2 4 1 -1 -3 -2 -7 1 3 -0 15 6 1 1 5 2 -0 0 3 6 6 3 4 1 -1 -1
-1 1 2 2 -0 0 0 -0 2 2 -3 -4 -7 6 2 -6 -4 0 -3 2 6 6 1 -3 -2 -3 0 5 1 4 2 4 -0 0 -2 1 -4 -4 -1 -1 -2 -1 -0 1
-9 0 1 3 -10 -1 -1 0 1 -1 -16 -2 -1 1 -3 -3 -1 -3 -2 -1 2 -2 -4 -2 -5 -6 -3 -1 -0 0 2 1 0 -1 -2 -1 -1 -3 -2 -3 -2 -0 -1 -0
-2 0 4 -32 -1 0 0 -3 -1 1 -0 -1 -3 -3 3 -4 -2 0 2 -1 -3 -3 1 2 2 2 -0 -1 -0 -2 -3 -4 -3 -2 -2 -2 -2 -1 -1 -1 1 2 0 1
-3 -2 -9 -7 -3 -1 -2 -13 -1 -1 -1 -1 -3 5 1 6 3 -4 -3 0 1 1 1 2 2 1 0 -1 -0 0 0 -0 1 0 -1 -0 -1 -1 -0 -1 -1 -1 -1 -2
-1 1 -7 -3 -8 -0 -1 -4 -1 1 -1 -1 2 -0 -6 3 -1 2 2 0 -4 0 -2 1 1 -0 -0 -1 -1 1 1 -1 -1 -1 -1 -0 -0 -0 -1 1 -2 -3 -3 -1
-2 -0 -9 -4 -2 2 6 -18 -1 2 -2 0 -1 -10 -0 3 1 5 -0 -4 -0 0 -1 -1 -1 -1 0 2 4 2 3 3 1 -0 1 1 -1 -1 -3 -2 -2 -0 3 1
-0 2 -9 2 -4 4 -13 -7 -5 1 3 2 -4 -2 -2 0 -4 -3 -5 -4 2 -1 1 1 -0 -1 -1 2 2 1 -3 -1 0 -0 -1 -3 -2 -2 -0 0 -0 0 -0 -1
-16 -7 -3 0 2 4 10 11 -5 3 -12 10 1 -0 -2 -5 -3 -1 -2 -2 1 -2 -1 1 -0 -1 -3 -3 -3 -2 0 1 1 1 1 2 1 1 -1 -1 0 1 -1 -0
-6 -5 -2 -3 -0 7 4 6 1 15 -2 9 -7 -4 -2 2 1 1 2 1 -0 1 2 -0 1 -0 -0 -0 0 0 -0 1 -0 -3 -2 -2 1 6 4 2 0 1 1 0
-2 -2 -5 -4 -7 -5 -8 -3 -13 -2 12 1 3 0 -1 1 2 2 1 3 2 1 3 2 3 3 3 2 1 0 0 2 3 2 1 -0 3 5 6 3 3 2 2 3
-8 -7 -7 -4 2 -39 1 -13 -17 8 -7 9 -1 3 3 3 3 0 -0 1 3 4 3 5 6 5 5 3 4 2 2 4 3 3 3 2 4 1 2 3 4 4 4 3
-2 13 9 -7 5 8 8 12 -15 -7 15 -10 -6 0 2 -1 4 -0 2 2 2 1 1 -0 -1 -0 5 7 5 5 1 3 4 1 -0 -2 -3 -2 1 1 0 1 2 -1
2 -3 -6 3 4 6 -0 -0 0 3 12 3 -1 1 2 4 6 8 8 6 6 1 3 3 4 4 7 8 6 4 3 1 -0 2 4 3 2 -1 -1 -2 -2 -2 -2 -2
-4 2 10 6 2 5 1 -5 -2 -2 -2 4 15 13 12 5 7 8 8 0 1 4 2 3 1 -3 2 0 -2 -0 1 2 1 3 0 -1 1 1 -1 -2 -0 -0 -1 -0
-0 2 -2 -3 -1 4 -3 -1 1 2 4 10 8 13 -0 -9 -3 -3 3 14 6 1 5 0 -4 2 4 2 1 1 -0 3 3 -1 -1 -1 -2 0 -0 -2 -2 -1 -0 -0
-7 -12 -4 -4 2 2 0 4 2 1 4 4 8 5 14 4 -0 3 4 8 -1 -1 2 2 1 4 -2 -5 -7 -10 -2 1 -1 -1 -4 -3 -2 -2 -2 -2 -0 2 -0 -0
4 5 3 3 2 2 -1 2 2 5 1 2 4 3 -2 1 -3 1 2 2 1 -7 -1 -4 -5 -3 2 5 5 3 -1 -4 -6 -3 -2 0 0 0 -1 1 1 1 3 2
3 2 3 2 4 2 1 0 2 3 3 7 2 1 5 5 5 2 1 -1 0 -1 3 4 1 0 1 1 1 -0 -1 -1 -3 -3 -3 -0 1 -0 1 1 0 2 2 -0
1 3 2 1 0 1 1 3 3 -0 4 5 1 0 -5 -1 -0 -2 4 -4 -1 -4 -0 -0 0 0 1 -0 -1 -3 -5 -3 -2 -2 -1 1 -0 1 1 2 2 1 0 1
4 6 2 -2 -0 4 1 4 2 -3 2 3 -1 -0 -1 2 2 3 -2 -1 5 2 -0 -0 -0 -1 -2 -2 -1 -1 -1 -0 1 1 0 0 0 1 2 1 -0 -0 0 1
3 -0 1 3 -0 -1 2 1 -1 0 -1 -1 1 -1 -2 -2 0 -2 -2 -2 1 1 -1 -0 -2 -2 -1 -2 -0 2 3 1 -1 -1 0 2 2 1 -1 -1 -1 -0 -0 -1
2 2 2 0 -1 2 3 1 0 1 -1 1 1 1 -2 -1 -0 -3 -4 1 1 0 -0 -1 0 2 2 1 1 -0 -1 -0 0 1 1 1 1 0 1 0 1 -0 -2 -2
4 3 3 6 6 2 -7 4 1 1 1 1 -0 1 0 -1 -1 2 2 2 2 1 1 1 -1 -1 -1 -0 -1 -0 0 -0 -1 -1 -2 -2 -2 -2 -2 -1 -1 -1 0 1
3 2 -0 -0 -2 -0 1 3 -0 -1 -1 -1 0 -0 -0 -0 -3 0 0 -0 -0 -1 -3 -2 -1 -0 -0 -1 -2 -3 -2 -1 -0 -1 -1 0 -0 -1 -1 -0 -0 1 -0 -1
-1 -1 1 2 1 2 2 3 -3 1 1 -2 -1 -0 0 0 -0 0 -0 -0 -1 -1 -1 -2 -3 -2 -2 -2 -3 -2 -1 -1 -2 -1 -1 -1 -0 -0 -0 -1 -0 -0 -1 -1
-2 -1 -0 -2 -2 -0 1 0 -1 -0 1 -0 -2 1 1 0 0 1 1 -1 0 1 2 1 0 -1 -2 -3 -2 -2 -1 -0 -0 -2 -2 -1 -1 -1 -1 0 0 -0 -0 0
Height
1403 1408 1409 1410 1413 1414 1418 1419 1430 1429 1430 1425 1421 1419 1424 1421 1419 1421 1424 1425 1426 1427 1430 1433 1435 1437 1438 1438 1439 1442 1445 1448 1450 1452 1456 1460 1465 1469 1473 1474 1476 1478 1479 1481
1407 1400 1402 1409 1407 1406 1407 1410 1411 1413 1417 1409 1410 1409 1413 1415 1416 1417 1417 1420 1422 1423 1427 1430 1432 1434 1436 1437 1436 1437 1440 1442 1445 1449 1453 1457 1461 1464 1466 1468 1470 1472 1474 1477
1410 1404 1405 1420 1400 1403 1401 1400 1402 1417 1407 1402 1402 1403 1403 1406 1409 1410 1411 1414 1417 1420 1423 1425 1427 1430 1432 1434 1435 1436 1438 1440 1443 1446 1449 1452 1456 1458 1461 1464 1467 1469 1471 1473
1417 1412 1425 1390 1387 1394 1397 1395 1394 1392 1391 1393 1394 1391 1394 1392 1397 1404 1406 1409 1412 1415 1418 1420 1422 1425 1427 1431 1434 1437 1438 1440 1443 1445 1448 1449 1452 1455 1458 1462 1465 1466 1468 1471
1414 1406 1403 1393 1386 1388 1392 1393 1385 1386 1384 1387 1388 1389 1391 1390 1392 1397 1400 1405 1408 1411 1414 1417 1419 1422 1425 1428 1431 1434 1437 1439 1441 1443 1445 1448 1451 1454 1457 1460 1462 1464 1467 1469
1425 1407 1410 1388 1384 1380 1377 1395 1379 1379 1381 1383 1383 1397 1392 1388 1390 1395 1398 1401 1404 1408 1411 1415 1418 1421 1424 1427 1429 1432 1435 1438 1441 1442 1445 1447 1449 1452 1455 1458 1460 1464 1466 1468
1433 1421 1399 1375 1374 1376 1396 1397 1373 1375 1376 1374 1380 1379 1379 1384 1389 1392 1394 1398 1403 1406 1409 1413 1417 1420 1424 1427 1430 1432 1433 1434 1436 1439 1443 1446 1448 1451 1454 1457 1459 1462 1465 1466
1417 1414 1409 1384 1375 1383 1379 1373 1374 1372 1372 1372 1374 1378 1379 1380 1386 1390 1392 1396 1400 1404 1408 1412 1416 1420 1425 1429 1431 1432 1434 1437 1439 1441 1443 1445 1448 1451 1453 1455 1457 1459 1460 1462
1400 1402 1384 1386 1390 1378 1378 1377 1375 1369 1365 1366 1371 1373 1376 1378 1382 1385 1388 1393 1398 1403 1408 1412 1415 1419 1422 1426 1430 1433 1435 1438 1441 1443 1444 1446 1448 1449 1450 1453 1454 1456 1456 1458
1386 1387 1385 1386 1379 1378 1380 1379 1376 1369 1366 1363 1366 1370 1373 1376 1379 1383 1388 1392 1397 1402 1406 1410 1414 1417 1421 1423 1426 1430 1433 1436 1438 1440 1443 1445 1448 1449 1450 1451 1453 1455 1455 1455
1385 1381 1386 1383 1382 1381 1378 1377 1371 1368 1366 1361 1365 1367 1367 1372 1376 1381 1387 1393 1397 1402 1407 1410 1413 1416 1419 1422 1424 1426 1429 1433 1436 1438 1441 1444 1448 1450 1451 1451 1452 1452 1453 1454
1386 1373 1376 1375 1375 1380 1378 1372 1376 1373 1369 1365 1365 1365 1366 1370 1374 1380 1387 1392 1398 1403 1407 1411 1415 1418 1420 1422 1424 1425 1428 1432 1434 1437 1439 1442 1445 1447 1449 1450 1450 1450 1449 1450
1372 1370 1367 1368 1372 1376 1375 1373 1372 1374 1367 1360 1361 1364 1367 1371 1376 1381 1386 1390 1395 1400 1407 1410 1413 1416 1420 1422 1424 1427 1430 1433 1434 1436 1439 1442 1444 1446 1448 1448 1448 1448 1447 1446
1367 1365 1365 1365 1367 1366 1366 1366 1366 1365 1361 1357 1357 1363 1366 1372 1378 1382 1386 1389 1394 1399 1404 1408 1413 1417 1421 1424 1426 1428 1430 1433 1435 1437 1438 1439 1440 1442 1444 1446 1446 1446 1445 1444
1369 1370 1369 1367 1366 1364 1363 1364 1363 1362 1360 1359 1359 1359 1366 1372 1378 1383 1386 1386 1390 1396 1401 1406 1410 1416 1422 1424 1427 1430 1432 1433 1435 1436 1438 1438 1439 1439 1441 1442 1443 1442 1442 1440
1373 1372 1370 1367 1366 1364 1364 1365 1362 1361 1360 1360 1360 1360 1363 1370 1377 1381 1386 1387 1386 1393 1402 1406 1412 1418 1422 1425 1428 1432 1435 1436 1437 1436 1436 1436 1437 1438 1438 1439 1439 1440 1439 1437
1376 1373 1370 1368 1367 1367 1366 1366 1365 1364 1362 1361 1362 1364 1364 1368 1374 1383 1389 1392 1394 1400 1404 1411 1414 1419 1424 1427 1429 1431 1432 1434 1435 1435 1435 1436 1436 1437 1437 1436 1435 1434 1434 1433
1382 1379 1376 1374 1371 1370 1369 1368 1367 1368 1368 1371 1373 1371 1372 1376 1380 1388 1393 1400 1400 1407 1412 1416 1420 1423 1426 1427 1428 1428 1430 1431 1433 1434 1434 1434 1433 1432 1433 1432 1431 1430 1429 1428
1382 1379 1377 1374 1373 1372 1372 1373 1373 1373 1375 1375 1378 1379 1382 1387 1392 1397 1403 1407 1410 1414 1419 1421 1424 1426 1427 1428 1429 1429 1429 1430 1431 1432 1432 1433 1431 1430 1430 1429 1427 1426 1424 1423
1384 1381 1378 1376 1377 1378 1378 1379 1380 1381 1384 1385 1387 1389 1393 1398 1402 1406 1411 1412 1416 1420 1424 1426 1428 1429 1429 1429 1429 1429 1429 1429 1430 1430 1430 1429 1428 1428 1427 1425 1423 1422 1421 1420
1391 1388 1385 1386 1386 1387 1386 1388 1389 1390 1394 1397 1398 1401 1404 1409 1413 1415 1419 1420 1422 1424 1426 1428 1429 1429 1429 1429 1429 1429 1429 1429 1428 1428 1427 1426 1426 1425 1423 1421 1420 1418 1417 1415
1398 1396 1397 1396 1395 1396 1399 1400 1400 1403 1405 1408 1410 1413 1415 1418 1419 1420 1424 1426 1427 1427 1429 1430 1430 1431 1430 1430 1430 1429 1427 1426 1426 1426 1425 1424 1422 1420 1419 1418 1417 1415 1412 1410
1408 1408 1408 1408 1407 1409 1410 1410 1412 1414 1415 1417 1419 1420 1421 1423 1425 1427 1428 1431 1430 1430 1430 1430 1430 1430 1429 1429 1428 1427 1426 1425 1424 1423 1422 1421 1420 1418 1417 1415 1413 1410 1408 1405
1417 1418 1417 1417 1417 1416 1416 1420 1421 1423 1423 1424 1425 1427 1428 1429 1430 1431 1432 1433 1432 1432 1431 1431 1430 1430 1429 1427 1426 1425 1424 1423 1422 1421 1420 1418 1417 1415 1413 1411 1408 1406 1403 1400
1424 1423 1423 1423 1422 1424 1426 1428 1428 1429 1430 1431 1432 1433 1433 1433 1433 1435 1434 1434 1433 1433 1432 1431 1430 1429 1428 1427 1426 1424 1423 1422 1420 1419 1417 1415 1413 1411 1409 1406 1403 1401 1398 1395
1432 1432 1432 1432 1432 1433 1433 1434 1433 1435 1436 1436 1437 1437 1437 1436 1436 1436 1436 1435 1434 1433 1432 1431 1430 1428 1427 1425 1424 1422 1421 1420 1418 1416 1414 1412 1409 1406 1403 1401 1398 1396 1393 1390
1437 1438 1438 1438 1438 1439 1439 1439 1438 1439 1439 1439 1439 1439 1439 1438 1438 1437 1436 1435 1434 1434 1432 1431 1429 1427 1426 1424 1423 1421 1419 1417 1415 1412 1410 1407 1404 1401 1398 1396 1393 1391 1388 1384